Location: Peebles
(55.6412°N, 3.1714°W)
Time: 04:53:40
(UTC+00:00)

Cosmos 1607 - Visible Passes

Search period start: 27 January 2022 00:00
Search period end: 06 February 2022 00:00
Orbit: 922 x 981 km, 65.0° (Epoch: 26 January)

Date Brightness Start Highest point End Pass type
(mag) Time Alt. Az. Time Alt. Az. Time Alt. Az.
27 Jan 4.3 17:40:26 10° NW 17:46:39 72° SW 17:52:46 10° SE visible
27 Jan 6.4 19:28:40 10° WNW 19:32:56 20° WSW 19:37:10 10° SSW visible
28 Jan 4.9 17:58:40 10° NW 18:04:40 50° SW 18:10:32 10° SSE visible
28 Jan 6.8 19:48:14 10° W 19:50:30 12° WSW 19:52:45 10° SW visible
29 Jan 5.7 18:17:02 10° NW 18:22:32 34° WSW 18:27:57 10° S visible
30 Jan 6.4 18:35:37 10° WNW 18:40:16 23° WSW 18:44:53 10° SSW visible
31 Jan 6.9 18:54:46 10° WNW 18:57:53 14° WSW 19:00:59 10° SW visible
01 Feb 5.7 17:24:08 10° NW 17:29:48 38° WSW 17:35:24 10° S visible
02 Feb 7.4 07:00:08 10° SE 07:02:59 13° ESE 07:05:50 10° ENE visible
02 Feb 6.5 17:42:37 10° WNW 17:47:36 26° WSW 17:52:31 10° SSW visible
03 Feb 7.0 07:16:00 10° SSE 07:20:36 21° ESE 07:25:09 10° ENE visible
03 Feb 7.0 18:01:30 10° WNW 18:05:15 17° WSW 18:08:56 10° SW visible
05 Feb 7.4 06:08:36 10° ESE 06:10:22 11° ESE 06:12:09 10° E visible
